Data No, UTC Date,UTC Time,Latitude,Longitude,Course(deg),Temp(degC),Sal(psu)
735,2018/6/18,12:14,35-35.59N,139-47.20E,190,20.447,26.2925
736,2018/6/18,12:15,35-35.50N,139-47.21E,171,20.562,25.9366
737,2018/6/18,12:16,35-35.42N,139-47.24E,158,20.679,25.6518
738,2018/6/18,12:17,35-35.33N,139-47.30E,149,20.464,24.9916
739,2018/6/18,12:18,35-35.21N,139-47.39E,147,19.491,24.6593
740,2018/6/18,12:19,35-35.09N,139-47.50E,141,19.482,26.3944
741,2018/6/18,12:20,35-34.96N,139-47.62E,141,19.272,27.872
742,2018/6/18,12:21,35-34.83N,139-47.75E,141,19.133,29.0449
743,2018/6/18,12:22,35-34.70N,139-47.88E,141,19.145,29.5843
744,2018/6/18,12:23,35-34.57N,139-48.01E,137,19.135,29.7576
745,2018/6/18,12:24,35-34.45N,139-48.16E,133,19.103,29.7452
746,2018/6/18,12:25,35-34.33N,139-48.31E,134,19.12,29.7356
747,2018/6/18,12:26,35-34.21N,139-48.46E,135,19.218,29.9721
748,2018/6/18,12:27,35-34.10N,139-48.62E,127,19.955,29.8
749,2018/6/18,12:28,35-33.99N,139-48.80E,126,19.303,29.5677
750,2018/6/18,12:29,35-33.87N,139-49.01E,126,19.255,28.5051
751,2018/6/18,12:30,35-33.73N,139-49.23E,125,19.361,29.3021
752,2018/6/18,12:31,35-33.60N,139-49.46E,124,19.465,29.4371
753,2018/6/18,12:32,35-33.47N,139-49.70E,124,19.565,29.3684
754,2018/6/18,12:33,35-33.33N,139-49.94E,124,20.075,29.1595
755,2018/6/18,12:34,35-33.19N,139-50.19E,124,20.269,28.8945
756,2018/6/18,12:35,35-33.05N,139-50.45E,124,20.556,28.3561
757,2018/6/18,12:36,35-32.85N,139-50.68E,144,20.695,28.5031
758,2018/6/18,12:37,35-32.60N,139-50.83E,156,20.778,28.4281
759,2018/6/18,12:38,35-32.32N,139-50.96E,161,20.613,28.2031
760,2018/6/18,12:39,35-32.04N,139-51.07E,161,20.43,29.286
761,2018/6/18,12:40,35-31.76N,139-51.19E,160,20.402,29.8709
762,2018/6/18,12:41,35-31.49N,139-51.30E,161,20.409,30.0727
763,2018/6/18,12:42,35-31.21N,139-51.41E,165,20.502,30.1679
764,2018/6/18,12:43,35-30.91N,139-51.42E,186,20.448,30.1382
765,2018/6/18,12:44,35-30.64N,139-51.28E,207,20.411,30.2309
766,2018/6/18,12:45,35-30.38N,139-51.10E,210,20.414,30.2431
767,2018/6/18,12:46,35-30.11N,139-50.93E,208,20.41,30.3087
768,2018/6/18,12:47,35-29.85N,139-50.75E,207,20.322,30.3377
769,2018/6/18,12:48,35-29.59N,139-50.58E,207,20.483,30.4268
770,2018/6/18,12:49,35-29.33N,139-50.40E,208,20.61,30.3146
771,2018/6/18,12:50,35-29.06N,139-50.21E,215,20.788,30.0046
772,2018/6/18,12:51,35-28.83N,139-49.98E,218,20.8,29.7501
773,2018/6/18,12:52,35-28.60N,139-49.76E,218,20.81,29.4985
774,2018/6/18,12:53,35-28.36N,139-49.53E,220,20.834,29.5502
775,2018/6/18,12:54,35-28.16N,139-49.25E,231,20.849,29.6011
776,2018/6/18,12:55,35-27.98N,139-48.96E,233,20.803,29.5597
777,2018/6/18,12:56,35-27.80N,139-48.67E,232,20.739,29.5545
778,2018/6/18,12:57,35-27.63N,139-48.38E,232,20.698,29.6401
779,2018/6/18,12:58,35-27.45N,139-48.09E,232,20.649,29.7429
780,2018/6/18,12:59,35-27.27N,139-47.79E,232,20.578,29.8272
781,2018/6/18,13:00,35-27.09N,139-47.50E,232,20.507,29.9029
782,2018/6/18,13:01,35-26.91N,139-47.21E,232,20.511,29.9971
783,2018/6/18,13:02,35-26.73N,139-46.92E,233,20.484,30.0087
784,2018/6/18,13:03,35-26.54N,139-46.62E,233,20.449,30.0599
785,2018/6/18,13:04,35-26.37N,139-46.33E,233,20.372,30.0751
786,2018/6/18,13:05,35-26.19N,139-46.03E,233,20.314,30.1808
787,2018/6/18,13:06,35-26.01N,139-45.74E,233,20.304,30.2889
788,2018/6/18,13:07,35-25.82N,139-45.43E,234,20.282,30.3178
789,2018/6/18,13:08,35-25.64N,139-45.13E,234,20.261,30.3344
790,2018/6/18,13:09,35-25.46N,139-44.83E,234,20.246,30.3702
791,2018/6/18,13:10,35-25.29N,139-44.53E,234,20.222,30.4041
792,2018/6/18,13:11,35-25.11N,139-44.22E,234,20.214,30.4648
793,2018/6/18,13:12,35-24.93N,139-43.92E,234,20.2,30.4899
794,2018/6/18,13:13,35-24.75N,139-43.61E,234,20.224,30.5202
795,2018/6/18,13:14,35-24.56N,139-43.32E,229,20.207,30.5259
796,2018/6/18,13:15,35-24.33N,139-43.12E,208,20.256,30.5013
797,2018/6/18,13:16,35-24.06N,139-42.96E,206,20.25,30.4878
798,2018/6/18,13:17,35-23.79N,139-42.79E,206,20.274,30.4793
799,2018/6/18,13:18,35-23.52N,139-42.62E,206,20.247,30.4428
800,2018/6/18,13:19,35-23.25N,139-42.46E,206,20.213,30.4534
801,2018/6/18,13:20,35-22.97N,139-42.31E,198,20.199,30.5519
802,2018/6/18,13:21,35-22.68N,139-42.28E,182,20.202,30.6028
803,2018/6/18,13:22,35-22.39N,139-42.27E,181,20.182,30.6297
804,2018/6/18,13:23,35-22.08N,139-42.26E,181,20.133,30.6724
805,2018/6/18,13:24,35-21.78N,139-42.25E,180,20.088,30.7504
806,2018/6/18,13:25,35-21.48N,139-42.25E,181,20.036,30.8334
807,2018/6/18,13:26,35-21.18N,139-42.23E,181,20.025,30.8911
808,2018/6/18,13:27,35-20.89N,139-42.23E,179,19.933,30.9599
809,2018/6/18,13:28,35-20.63N,139-42.28E,169,19.89,31.113
810,2018/6/18,13:29,35-20.38N,139-42.34E,169,19.94,31.241
811,2018/6/18,13:30,35-20.14N,139-42.39E,170,19.967,31.2586
812,2018/6/18,13:31,35-19.93N,139-42.46E,160,19.969,31.2418
813,2018/6/18,13:32,35-19.75N,139-42.58E,149,19.964,31.2725
814,2018/6/18,13:33,35-19.57N,139-42.71E,147,19.91,31.2756
815,2018/6/18,13:34,35-19.39N,139-42.85E,147,19.839,31.3734
816,2018/6/18,13:35,35-19.22N,139-42.98E,147,19.812,31.4774
817,2018/6/18,13:36,35-19.05N,139-43.11E,149,19.751,31.5211
818,2018/6/18,13:37,35-18.87N,139-43.24E,148,19.732,31.5836
819,2018/6/18,13:38,35-18.69N,139-43.38E,147,19.769,31.6271
820,2018/6/18,13:39,35-18.51N,139-43.51E,148,19.803,31.6168
821,2018/6/18,13:40,35-18.33N,139-43.65E,147,19.778,31.5597
822,2018/6/18,13:41,35-18.16N,139-43.78E,148,19.703,31.5898
823,2018/6/18,13:42,35-17.97N,139-43.92E,148,19.641,31.7733
824,2018/6/18,13:43,35-17.80N,139-44.06E,146,19.473,31.9874
825,2018/6/18,13:44,35-17.62N,139-44.20E,147,19.435,32.2103
826,2018/6/18,13:45,35-17.45N,139-44.35E,144,19.431,32.2839
827,2018/6/18,13:46,35-17.28N,139-44.50E,143,19.36,32.3303
828,2018/6/18,13:47,35-17.11N,139-44.64E,144,19.356,32.4153
829,2018/6/18,13:48,35-16.95N,139-44.79E,144,19.342,32.4542
830,2018/6/18,13:49,35-16.78N,139-44.94E,143,19.315,32.4515
831,2018/6/18,13:50,35-16.61N,139-45.09E,143,19.369,32.4535
832,2018/6/18,13:51,35-16.44N,139-45.24E,143,19.453,32.4528
833,2018/6/18,13:52,35-16.27N,139-45.39E,143,19.477,32.3736
834,2018/6/18,13:53,35-16.11N,139-45.54E,143,19.54,32.283
835,2018/6/18,13:54,35-15.94N,139-45.69E,143,19.536,32.226
836,2018/6/18,13:55,35-15.76N,139-45.85E,144,19.541,32.1935
837,2018/6/18,13:56,35-15.59N,139-46.00E,145,19.433,32.1599
838,2018/6/18,13:57,35-15.41N,139-46.15E,147,19.404,32.3489
839,2018/6/18,13:58,35-15.22N,139-46.26E,160,19.41,32.4786
840,2018/6/18,13:59,35-15.01N,139-46.30E,172,19.414,32.5532
841,2018/6/18,14:00,35-14.79N,139-46.31E,177,19.437,32.6462
842,2018/6/18,14:01,35-14.58N,139-46.31E,181,19.493,32.7001
843,2018/6/18,14:02,35-14.37N,139-46.31E,178,19.52,32.7055
844,2018/6/18,14:03,35-14.16N,139-46.32E,177,19.507,32.7304
845,2018/6/18,14:04,35-13.95N,139-46.33E,178,19.509,32.8105
846,2018/6/18,14:05,35-13.73N,139-46.34E,177,19.477,32.877
847,2018/6/18,14:06,35-13.52N,139-46.35E,178,19.424,32.9712
848,2018/6/18,14:07,35-13.31N,139-46.35E,178,19.402,32.9661
849,2018/6/18,14:08,35-13.11N,139-46.36E,177,19.356,32.9954
850,2018/6/18,14:09,35-12.90N,139-46.37E,178,19.377,33.0412
851,2018/6/18,14:10,35-12.67N,139-46.36E,185,19.469,33.0476
852,2018/6/18,14:11,35-12.43N,139-46.32E,187,19.532,33.0199
853,2018/6/18,14:12,35-12.16N,139-46.27E,187,19.587,33.0184
854,2018/6/18,14:13,35-11.88N,139-46.23E,187,19.656,33.0135
855,2018/6/18,14:14,35-11.58N,139-46.18E,187,19.675,32.9832
856,2018/6/18,14:15,35-11.27N,139-46.12E,188,19.668,32.9417
857,2018/6/18,14:16,35-10.97N,139-46.07E,187,19.684,32.9705
858,2018/6/18,14:17,35-10.68N,139-46.02E,189,19.693,33.1395
859,2018/6/18,14:18,35-10.38N,139-45.95E,191,19.693,33.3065
860,2018/6/18,14:19,35-10.08N,139-45.88E,191,19.535,33.373
861,2018/6/18,14:20,35-09.78N,139-45.81E,190,19.411,33.3694
862,2018/6/18,14:21,35-09.48N,139-45.74E,190,19.452,33.3003
863,2018/6/18,14:22,35-09.19N,139-45.68E,190,19.428,33.2204
864,2018/6/18,14:23,35-08.90N,139-45.60E,192,19.376,33.1883
865,2018/6/18,14:24,35-08.60N,139-45.51E,194,19.306,33.1538
866,2018/6/18,14:25,35-08.32N,139-45.42E,194,19.379,33.0724
867,2018/6/18,14:26,35-08.03N,139-45.33E,193,19.737,33.0275
868,2018/6/18,14:27,35-07.74N,139-45.25E,193,20.214,33.1094
869,2018/6/18,14:28,35-07.45N,139-45.16E,193,20.376,33.3095
870,2018/6/18,14:29,35-07.16N,139-45.08E,193,20.547,33.4115
871,2018/6/18,14:30,35-06.88N,139-44.99E,194,20.649,33.5142
872,2018/6/18,14:31,35-06.59N,139-44.91E,194,20.787,33.572
873,2018/6/18,14:32,35-06.31N,139-44.82E,193,20.718,33.6605
874,2018/6/18,14:33,35-06.02N,139-44.74E,194,20.708,33.6708
875,2018/6/18,14:34,35-05.74N,139-44.65E,194,20.747,33.6564
876,2018/6/18,14:35,35-05.46N,139-44.56E,194,20.92,33.6643
877,2018/6/18,14:36,35-05.17N,139-44.47E,194,21.161,33.7473
878,2018/6/18,14:37,35-04.89N,139-44.38E,194,21.389,33.8632
879,2018/6/18,14:38,35-04.60N,139-44.30E,193,21.863,33.9814
880,2018/6/18,14:39,35-04.31N,139-44.21E,193,21.96,34.17
881,2018/6/18,14:40,35-04.02N,139-44.12E,194,21.993,34.2271
882,2018/6/18,14:41,35-03.74N,139-44.04E,193,22.004,34.2396
883,2018/6/18,14:42,35-03.45N,139-43.95E,194,21.997,34.2487
884,2018/6/18,14:43,35-03.17N,139-43.86E,194,21.981,34.2528
885,2018/6/18,14:44,35-02.87N,139-43.77E,194,21.967,34.2558
886,2018/6/18,14:45,35-02.58N,139-43.68E,194,21.941,34.259
887,2018/6/18,14:46,35-02.29N,139-43.59E,194,21.871,34.2604
888,2018/6/18,14:47,35-02.00N,139-43.50E,194,21.807,34.2551
889,2018/6/18,14:48,35-01.71N,139-43.41E,194,21.722,34.2515
890,2018/6/18,14:49,35-01.43N,139-43.31E,194,21.708,34.2439
891,2018/6/18,14:50,35-01.14N,139-43.22E,194,21.74,34.2332
892,2018/6/18,14:51,35-00.85N,139-43.13E,194,21.755,34.2462
893,2018/6/18,14:52,35-00.56N,139-43.04E,194,21.797,34.2582
894,2018/6/18,14:53,35-00.27N,139-42.94E,194,21.817,34.2641
895,2018/6/18,14:54,34-59.97N,139-42.85E,194,21.806,34.2631
896,2018/6/18,14:55,34-59.67N,139-42.76E,194,21.793,34.2619
897,2018/6/18,14:56,34-59.37N,139-42.67E,193,21.768,34.2608
898,2018/6/18,14:57,34-59.08N,139-42.58E,194,21.85,34.2557
899,2018/6/18,14:58,34-58.78N,139-42.49E,193,21.88,34.2479
900,2018/6/18,14:59,34-58.49N,139-42.41E,193,21.947,34.24
901,2018/6/18,15:00,34-58.20N,139-42.32E,193,21.991,34.2376
902,2018/6/18,15:01,34-57.91N,139-42.24E,193,21.943,34.2339
903,2018/6/18,15:02,34-57.62N,139-42.15E,195,21.936,34.2336
904,2018/6/18,15:03,34-57.33N,139-42.13E,174,21.96,34.2404
905,2018/6/18,15:04,34-57.05N,139-42.27E,152,21.943,34.239
906,2018/6/18,15:05,34-56.84N,139-42.42E,149,21.921,34.2383
907,2018/6/18,15:06,34-56.59N,139-42.60E,148,21.942,34.2392
908,2018/6/18,15:07,34-56.34N,139-42.79E,148,21.924,34.2402
909,2018/6/18,15:08,34-56.08N,139-42.98E,149,21.901,34.2417
910,2018/6/18,15:09,34-55.81N,139-43.16E,151,21.893,34.2469
911,2018/6/18,15:10,34-55.53N,139-43.34E,152,21.883,34.2528
912,2018/6/18,15:11,34-55.26N,139-43.52E,152,21.894,34.254
913,2018/6/18,15:12,34-54.99N,139-43.69E,152,21.905,34.2541
914,2018/6/18,15:13,34-54.72N,139-43.86E,152,21.921,34.2543
915,2018/6/18,15:14,34-54.44N,139-44.04E,152,21.937,34.2527
916,2018/6/18,15:15,34-54.17N,139-44.23E,146,21.958,34.2505
917,2018/6/18,15:16,34-53.90N,139-44.47E,143,21.974,34.2497
918,2018/6/18,15:17,34-53.66N,139-44.70E,141,21.968,34.2482
919,2018/6/18,15:18,34-53.42N,139-44.93E,142,21.955,34.2479
920,2018/6/18,15:19,34-53.19N,139-45.15E,141,21.94,34.2499
921,2018/6/18,15:20,34-52.96N,139-45.36E,142,21.902,34.2515
922,2018/6/18,15:21,34-52.73N,139-45.60E,138,21.886,34.2539
923,2018/6/18,15:22,34-52.51N,139-45.85E,136,21.915,34.2575
924,2018/6/18,15:23,34-52.32N,139-46.07E,137,21.964,34.2546
925,2018/6/18,15:24,34-52.11N,139-46.31E,136,22.01,34.2481
926,2018/6/18,15:25,34-51.90N,139-46.55E,136,22.056,34.2429
927,2018/6/18,15:26,34-51.69N,139-46.81E,133,22.09,34.2347
928,2018/6/18,15:27,34-51.47N,139-47.13E,129,22.1,34.2276
929,2018/6/18,15:28,34-51.29N,139-47.40E,129,22.094,34.2232
930,2018/6/18,15:29,34-51.13N,139-47.67E,123,21.836,34.2194
931,2018/6/18,15:30,34-50.99N,139-47.93E,123,21.551,34.2263
932,2018/6/18,15:31,34-50.82N,139-48.24E,123,21.287,34.254
933,2018/6/18,15:32,34-50.67N,139-48.51E,125,21.043,34.2407
934,2018/6/18,15:33,34-50.54N,139-48.75E,123,21.172,34.2128
935,2018/6/18,15:34,34-50.37N,139-49.06E,122,21.248,34.2263
936,2018/6/18,15:35,34-50.23N,139-49.34E,121,21.233,34.2689
937,2018/6/18,15:36,34-50.09N,139-49.61E,121,21.255,34.2883
938,2018/6/18,15:37,34-49.95N,139-49.90E,120,21.253,34.2938
939,2018/6/18,15:38,34-49.85N,139-50.18E,111,21.177,34.2894
940,2018/6/18,15:39,34-49.81N,139-50.44E,99,21.213,34.291
941,2018/6/18,15:40,34-49.80N,139-50.74E,91,21.269,34.2911
942,2018/6/18,15:41,34-49.81N,139-51.05E,88,21.384,34.2926
943,2018/6/18,15:42,34-49.85N,139-51.35E,75,21.653,34.2945
944,2018/6/18,15:43,34-49.96N,139-51.64E,63,21.794,34.2899
945,2018/6/18,15:44,34-50.08N,139-51.93E,63,21.863,34.2754
946,2018/6/18,15:45,34-50.20N,139-52.22E,63,21.86,34.2702
947,2018/6/18,15:46,34-50.32N,139-52.52E,64,21.829,34.2711
948,2018/6/18,15:47,34-50.44N,139-52.81E,64,21.806,34.2756
949,2018/6/18,15:48,34-50.55N,139-53.12E,67,21.769,34.2824
950,2018/6/18,15:49,34-50.66N,139-53.42E,66,21.745,34.2865
951,2018/6/18,15:50,34-50.77N,139-53.73E,65,21.66,34.2912
952,2018/6/18,15:51,34-50.88N,139-54.03E,65,21.502,34.2942
953,2018/6/18,15:52,34-51.00N,139-54.32E,64,20.929,34.2926
954,2018/6/18,15:53,34-51.11N,139-54.60E,64,20.678,34.2432
955,2018/6/18,15:54,34-51.21N,139-54.87E,64,20.603,34.1416
956,2018/6/18,15:55,34-51.32N,139-55.15E,65,20.379,34.1133
957,2018/6/18,15:56,34-51.42N,139-55.42E,63,20.385,34.0983
958,2018/6/18,15:57,34-51.53N,139-55.68E,63,20.547,34.103
959,2018/6/18,15:58,34-51.65N,139-55.94E,61,20.633,34.1007
960,2018/6/18,15:59,34-51.76N,139-56.21E,63,20.631,34.1111
961,2018/6/18,16:00,34-51.87N,139-56.47E,62,20.72,34.1163
962,2018/6/18,16:01,34-51.99N,139-56.74E,62,20.883,34.1233
963,2018/6/18,16:02,34-52.10N,139-57.01E,62,21.09,34.1309
964,2018/6/18,16:03,34-52.22N,139-57.27E,61,21.357,34.1483
965,2018/6/18,16:04,34-52.33N,139-57.52E,61,21.525,34.1783
966,2018/6/18,16:05,34-52.44N,139-57.78E,62,21.572,34.1971
967,2018/6/18,16:06,34-52.56N,139-58.04E,62,21.647,34.2023
968,2018/6/18,16:07,34-52.67N,139-58.31E,61,21.692,34.206
969,2018/6/18,16:08,34-52.81N,139-58.57E,56,21.766,34.2126
970,2018/6/18,16:09,34-52.95N,139-58.82E,54,21.822,34.222
971,2018/6/18,16:10,34-53.09N,139-59.06E,54,21.835,34.2296
972,2018/6/18,16:11,34-53.24N,139-59.31E,54,21.827,34.2339
973,2018/6/18,16:12,34-53.39N,139-59.56E,53,21.786,34.2342
974,2018/6/18,16:13,34-53.54N,139-59.82E,54,21.782,34.2427
975,2018/6/18,16:14,34-53.69N,140-00.08E,55,21.806,34.2469
976,2018/6/18,16:15,34-53.84N,140-00.34E,55,21.814,34.2417
977,2018/6/18,16:16,34-53.99N,140-00.60E,54,21.812,34.238
978,2018/6/18,16:17,34-54.14N,140-00.85E,55,21.812,34.2465
979,2018/6/18,16:18,34-54.29N,140-01.12E,55,21.722,34.2513
980,2018/6/18,16:19,34-54.44N,140-01.39E,55,21.676,34.2588
981,2018/6/18,16:20,34-54.60N,140-01.65E,55,21.699,34.274
982,2018/6/18,16:21,34-54.74N,140-01.91E,54,21.748,34.272
983,2018/6/18,16:22,34-54.90N,140-02.17E,55,21.793,34.2666
984,2018/6/18,16:23,34-55.05N,140-02.43E,55,21.804,34.263
985,2018/6/18,16:24,34-55.20N,140-02.70E,55,21.813,34.2586
986,2018/6/18,16:25,34-55.35N,140-02.95E,54,21.828,34.2495
987,2018/6/18,16:26,34-55.51N,140-03.21E,53,21.849,34.248
988,2018/6/18,16:27,34-55.67N,140-03.48E,54,21.883,34.2497
989,2018/6/18,16:28,34-55.82N,140-03.74E,54,21.924,34.2523
990,2018/6/18,16:29,34-55.98N,140-04.00E,53,21.959,34.2576
991,2018/6/18,16:30,34-56.13N,140-04.26E,54,21.971,34.2661
992,2018/6/18,16:31,34-56.28N,140-04.53E,54,21.981,34.2721
993,2018/6/18,16:32,34-56.44N,140-04.79E,54,21.998,34.2754
994,2018/6/18,16:33,34-56.60N,140-05.06E,54,21.992,34.2768
995,2018/6/18,16:34,34-56.75N,140-05.32E,54,21.999,34.2771
996,2018/6/18,16:35,34-56.90N,140-05.59E,57,22.009,34.2763
997,2018/6/18,16:36,34-57.03N,140-05.88E,62,22.008,34.2744
998,2018/6/18,16:37,34-57.15N,140-06.19E,65,21.993,34.2741
999,2018/6/18,16:38,34-57.25N,140-06.49E,67,22.002,34.2734
1000,2018/6/18,16:39,34-57.36N,140-06.80E,67,22.007,34.2735
1001,2018/6/18,16:40,34-57.46N,140-07.11E,66,22.008,34.2737
1002,2018/6/18,16:41,34-57.57N,140-07.42E,67,22.011,34.2745
1003,2018/6/18,16:42,34-57.67N,140-07.74E,68,21.996,34.273
1004,2018/6/18,16:43,34-57.78N,140-08.06E,67,22.019,34.2708
1005,2018/6/18,16:44,34-57.89N,140-08.38E,68,22.03,34.2683
1006,2018/6/18,16:45,34-57.99N,140-08.69E,66,22.026,34.2663
1007,2018/6/18,16:46,34-58.11N,140-09.00E,66,22.01,34.2652
1008,2018/6/18,16:47,34-58.23N,140-09.32E,65,21.896,34.2614
1009,2018/6/18,16:48,34-58.34N,140-09.63E,65,20.921,34.2576
1010,2018/6/18,16:49,34-58.46N,140-09.94E,65,20.781,34.306
1011,2018/6/18,16:50,34-58.58N,140-10.25E,65,20.74,34.3293
1012,2018/6/18,16:51,34-58.69N,140-10.54E,64,20.704,34.3361
1013,2018/6/18,16:52,34-58.80N,140-10.84E,65,20.719,34.3388
1014,2018/6/18,16:53,34-58.91N,140-11.13E,64,20.733,34.3365
1015,2018/6/18,16:54,34-59.03N,140-11.44E,65,20.73,34.3363
1016,2018/6/18,16:55,34-59.15N,140-11.75E,64,20.754,34.3367
1017,2018/6/18,16:56,34-59.27N,140-12.05E,64,20.763,34.3371
1018,2018/6/18,16:57,34-59.38N,140-12.34E,64,20.77,34.3341
1019,2018/6/18,16:58,34-59.49N,140-12.65E,65,20.777,34.3318
1020,2018/6/18,16:59,34-59.61N,140-12.96E,65,20.789,34.331
1021,2018/6/18,17:00,34-59.73N,140-13.27E,65,20.819,34.33
1022,2018/6/18,17:01,34-59.85N,140-13.59E,65,20.831,34.3291
1023,2018/6/18,17:02,34-59.96N,140-13.90E,66,20.841,34.3272
1024,2018/6/18,17:03,35-00.07N,140-14.22E,65,20.86,34.3279
1025,2018/6/18,17:04,35-00.19N,140-14.53E,66,20.883,34.3264
1026,2018/6/18,17:05,35-00.30N,140-14.85E,66,20.885,34.3253
1027,2018/6/18,17:06,35-00.42N,140-15.16E,66,20.846,34.3261
1028,2018/6/18,17:07,35-00.53N,140-15.47E,65,20.85,34.3289
1029,2018/6/18,17:08,35-00.64N,140-15.78E,66,20.848,34.329
1030,2018/6/18,17:09,35-00.76N,140-16.08E,66,20.861,34.3292
1031,2018/6/18,17:10,35-00.87N,140-16.40E,67,20.856,34.3281
1032,2018/6/18,17:11,35-00.98N,140-16.70E,65,20.856,34.3275
1033,2018/6/18,17:12,35-01.09N,140-17.01E,66,20.868,34.3266
1034,2018/6/18,17:13,35-01.20N,140-17.32E,66,20.867,34.3278
1035,2018/6/18,17:14,35-01.31N,140-17.63E,65,20.866,34.3296
1036,2018/6/18,17:15,35-01.43N,140-17.94E,64,20.87,34.3313
1037,2018/6/18,17:16,35-01.55N,140-18.24E,64,20.881,34.3319
1038,2018/6/18,17:17,35-01.67N,140-18.55E,65,20.877,34.3333
1039,2018/6/18,17:18,35-01.79N,140-18.85E,64,20.865,34.3333
1040,2018/6/18,17:19,35-01.90N,140-19.15E,64,20.861,34.3335
1041,2018/6/18,17:20,35-02.02N,140-19.45E,64,20.849,34.3338
1042,2018/6/18,17:21,35-02.14N,140-19.76E,64,20.795,34.3352
1043,2018/6/18,17:22,35-02.26N,140-20.05E,64,20.731,34.3375
1044,2018/6/18,17:23,35-02.38N,140-20.35E,65,20.718,34.3468
1045,2018/6/18,17:24,35-02.50N,140-20.66E,64,20.731,34.3512
1046,2018/6/18,17:25,35-02.61N,140-20.95E,64,20.751,34.3506
1047,2018/6/18,17:26,35-02.73N,140-21.25E,64,20.773,34.3494
1048,2018/6/18,17:27,35-02.85N,140-21.55E,63,20.791,34.3465
1049,2018/6/18,17:28,35-02.97N,140-21.85E,64,20.798,34.3452
1050,2018/6/18,17:29,35-03.08N,140-22.15E,64,20.781,34.3451
1051,2018/6/18,17:30,35-03.20N,140-22.46E,64,20.709,34.3473
1052,2018/6/18,17:31,35-03.32N,140-22.76E,64,20.697,34.3533
1053,2018/6/18,17:32,35-03.44N,140-23.06E,65,20.693,34.3564
1054,2018/6/18,17:33,35-03.55N,140-23.35E,64,20.701,34.3533
1055,2018/6/18,17:34,35-03.67N,140-23.65E,64,20.715,34.3489
1056,2018/6/18,17:35,35-03.78N,140-23.95E,63,20.706,34.3449
1057,2018/6/18,17:36,35-03.90N,140-24.25E,65,20.729,34.343
1058,2018/6/18,17:37,35-04.02N,140-24.56E,63,20.735,34.341
1059,2018/6/18,17:38,35-04.14N,140-24.86E,63,20.741,34.3391
1060,2018/6/18,17:39,35-04.26N,140-25.16E,64,20.724,34.3374
1061,2018/6/18,17:40,35-04.37N,140-25.46E,65,20.693,34.3346
1062,2018/6/18,17:41,35-04.49N,140-25.76E,63,20.637,34.3341
1063,2018/6/18,17:42,35-04.61N,140-26.05E,62,20.575,34.3336
1064,2018/6/18,17:43,35-04.74N,140-26.35E,62,20.497,34.3346
1065,2018/6/18,17:44,35-04.88N,140-26.60E,49,20.46,34.3364
1066,2018/6/18,17:45,35-05.06N,140-26.83E,46,20.474,34.3363
1067,2018/6/18,17:46,35-05.24N,140-27.06E,45,20.461,34.3384
1068,2018/6/18,17:47,35-05.42N,140-27.29E,44,20.421,34.3365
1069,2018/6/18,17:48,35-05.61N,140-27.53E,45,20.365,34.334
1070,2018/6/18,17:49,35-05.80N,140-27.76E,45,20.284,34.3314
1071,2018/6/18,17:50,35-05.98N,140-27.99E,46,20.254,34.3262
1072,2018/6/18,17:51,35-06.17N,140-28.22E,47,20.277,34.3213
1073,2018/6/18,17:52,35-06.34N,140-28.47E,52,20.207,34.3188
1074,2018/6/18,17:53,35-06.49N,140-28.74E,57,20.137,34.3185
1075,2018/6/18,17:54,35-06.62N,140-29.01E,59,20.082,34.3181
1076,2018/6/18,17:55,35-06.76N,140-29.29E,60,20.134,34.3171
1077,2018/6/18,17:56,35-06.88N,140-29.56E,61,20.202,34.3169
1078,2018/6/18,17:57,35-07.00N,140-29.85E,63,20.204,34.3125
1079,2018/6/18,17:58,35-07.13N,140-30.12E,57,20.142,34.3124
1080,2018/6/18,17:59,35-07.27N,140-30.37E,53,20.093,34.3132
1081,2018/6/18,18:00,35-07.43N,140-30.61E,50,20.16,34.3144
1082,2018/6/18,18:01,35-07.60N,140-30.85E,47,20.109,34.317
1083,2018/6/18,18:02,35-07.77N,140-31.08E,47,19.984,34.3205
1084,2018/6/18,18:03,35-07.94N,140-31.31E,48,19.811,34.3216
1085,2018/6/18,18:04,35-08.11N,140-31.54E,47,19.692,34.3186
1086,2018/6/18,18:05,35-08.28N,140-31.75E,44,19.691,34.3129
1087,2018/6/18,18:06,35-08.46N,140-31.96E,44,19.802,34.3125
1088,2018/6/18,18:07,35-08.64N,140-32.16E,41,19.889,34.3124
1089,2018/6/18,18:08,35-08.83N,140-32.37E,43,19.978,34.3141
1090,2018/6/18,18:09,35-09.01N,140-32.57E,41,19.945,34.3126
1091,2018/6/18,18:10,35-09.20N,140-32.77E,40,19.79,34.3098
1092,2018/6/18,18:11,35-09.38N,140-32.96E,41,19.917,34.3095
1093,2018/6/18,18:12,35-09.57N,140-33.16E,42,19.986,34.3092
1094,2018/6/18,18:13,35-09.75N,140-33.35E,40,20.026,34.3092
1095,2018/6/18,18:14,35-09.93N,140-33.56E,42,19.842,34.3097
1096,2018/6/18,18:15,35-10.12N,140-33.76E,40,19.963,34.3082
1097,2018/6/18,18:16,35-10.31N,140-33.94E,38,20.169,34.3085
1098,2018/6/18,18:17,35-10.51N,140-34.13E,38,20.322,34.3114
1099,2018/6/18,18:18,35-10.70N,140-34.32E,38,20.439,34.3152
1100,2018/6/18,18:19,35-10.90N,140-34.52E,42,20.413,34.3166
1101,2018/6/18,18:20,35-11.06N,140-34.76E,54,20.345,34.3176
1102,2018/6/18,18:21,35-11.20N,140-35.02E,59,20.296,34.3173
1103,2018/6/18,18:22,35-11.33N,140-35.30E,60,20.313,34.3169
1104,2018/6/18,18:23,35-11.45N,140-35.57E,60,20.266,34.3171
1105,2018/6/18,18:24,35-11.58N,140-35.84E,60,20.313,34.3171
1106,2018/6/18,18:25,35-11.70N,140-36.12E,61,20.35,34.3166
1107,2018/6/18,18:26,35-11.82N,140-36.39E,63,20.346,34.3172
1108,2018/6/18,18:27,35-11.94N,140-36.67E,60,20.333,34.3195
1109,2018/6/18,18:28,35-12.07N,140-36.95E,59,20.387,34.3199
1110,2018/6/18,18:29,35-12.20N,140-37.21E,58,20.409,34.3213
1111,2018/6/18,18:30,35-12.33N,140-37.47E,57,20.432,34.3207
1112,2018/6/18,18:31,35-12.47N,140-37.73E,57,20.417,34.3203
1113,2018/6/18,18:32,35-12.61N,140-37.99E,56,20.431,34.3198
1114,2018/6/18,18:33,35-12.75N,140-38.25E,57,20.42,34.3201
1115,2018/6/18,18:34,35-12.89N,140-38.51E,55,20.432,34.3191
1116,2018/6/18,18:35,35-13.04N,140-38.74E,50,20.43,34.3192
1117,2018/6/18,18:36,35-13.20N,140-38.97E,49,20.439,34.3201
1118,2018/6/18,18:37,35-13.37N,140-39.20E,48,20.429,34.3204
1119,2018/6/18,18:38,35-13.54N,140-39.43E,47,20.441,34.3204
1120,2018/6/18,18:39,35-13.71N,140-39.64E,44,20.436,34.3208
1121,2018/6/18,18:40,35-13.88N,140-39.85E,45,20.423,34.3223
1122,2018/6/18,18:41,35-14.06N,140-40.07E,44,20.408,34.3231
1123,2018/6/18,18:42,35-14.24N,140-40.27E,41,20.448,34.3218
1124,2018/6/18,18:43,35-14.42N,140-40.47E,41,20.457,34.322
1125,2018/6/18,18:44,35-14.61N,140-40.67E,40,20.452,34.323
1126,2018/6/18,18:45,35-14.81N,140-40.86E,36,20.455,34.3237
1127,2018/6/18,18:46,35-15.01N,140-41.04E,36,20.492,34.3244
1128,2018/6/18,18:47,35-15.22N,140-41.22E,36,20.521,34.3258